"startDT [UTC]","vpos","CH4 [ppm]","stdev(CH4) [ppm]","CO2 [ppm]","stdev(CO2) [ppm]","H2O [ppm]","stdev(H2O)","p_LGR [torr]","T_LGR [C]","mt1_LGR [us]","mt2_LGR [us]","T_ECpre [C]","T_EC1 [C]","T_EC2 [C]","p_inlet [hPa]","p_in [hPa]","p_out [hPa]","T_inlet [C]","RH_inlet [%]","dwpt_inlet [C]","T_vent [C]","RH_vent [%]","dwpt_vent [C]","flow_vent [l min-1]","flow_inlet [l min-1]","dwpt_sample [C]","T_room [C]"
2012-12-01 00:00:00,0.0,1.9279,0.0008,411.50,0.25,-1.0,0.0,138.21,23.44,24.61,36.30,0.04,-272.75,-272.74,-36,548,-924,18.6,1.3,-35.8,18.6,1.4,-35.4,5.73,2.44,-32.1,23.6
2012-12-01 00:01:00,0.0,1.9278,0.0008,411.56,0.26,-1.0,0.0,138.21,23.44,24.61,36.30,0.04,-272.74,-272.74,-35,548,-923,18.6,1.3,-35.9,18.6,1.4,-35.4,5.73,2.36,-32.1,23.6
2012-12-01 00:02:00,0.0,1.9291,0.0009,411.53,0.25,-1.0,0.0,138.22,23.45,24.60,36.30,0.04,-272.74,-272.74,-35,548,-923,18.6,1.3,-35.8,18.6,1.4,-35.4,5.73,2.49,-32.1,23.7
2012-12-01 00:03:00,0.0,1.9287,0.0009,411.59,0.26,-1.0,0.0,138.22,23.46,24.61,36.30,0.04,-272.75,-272.75,-35,548,-924,18.5,1.3,-35.9,18.6,1.4,-35.4,5.73,2.41,-32.1,23.7
2012-12-01 00:04:00,0.0,1.9291,0.0009,411.47,0.24,-1.0,0.0,138.21,23.46,24.61,36.30,0.04,-272.75,-272.75,-35,548,-923,18.6,1.3,-35.8,18.6,1.4,-35.4,5.73,2.39,-32.1,23.7
2012-12-01 00:05:00,0.0,1.9296,0.0008,411.63,0.26,-1.0,0.0,138.22,23.47,24.61,36.29,0.04,-272.74,-272.74,-36,548,-924,18.5,1.3,-36.0,18.6,1.4,-35.6,5.73,2.49,-32.1,23.6
2012-12-01 00:06:00,0.0,1.9288,0.0009,411.59,0.18,-1.0,0.0,138.21,23.48,24.61,36.30,0.04,-272.75,-272.74,-35,548,-924,18.5,1.3,-36.3,18.6,1.3,-35.9,5.73,2.38,-32.1,23.7
2012-12-01 00:07:00,0.0,1.9289,0.0010,411.51,0.25,-1.0,0.0,138.21,23.48,24.61,36.30,0.04,-272.75,-272.75,-35,547,-923,18.6,1.2,-36.5,18.6,1.3,-36.1,5.73,2.41,-32.1,23.7
2012-12-01 00:08:00,0.0,1.9291,0.0009,411.51,0.22,-1.0,0.0,138.22,23.48,24.61,36.30,0.04,-272.74,-272.74,-35,548,-924,18.5,1.2,-36.9,18.6,1.3,-36.4,5.73,2.48,-32.1,23.6
2012-12-01 00:09:00,0.0,1.9291,0.0008,411.55,0.21,-1.0,0.0,138.22,23.49,24.61,36.30,0.04,-272.74,-272.74,-35,548,-923,18.6,1.2,-37.0,18.6,1.2,-36.5,5.73,2.36,-32.1,23.6
2012-12-01 00:10:00,0.0,1.9288,0.0008,411.54,0.20,-1.0,0.0,138.22,23.49,24.61,36.30,0.04,-272.75,-272.75,-36,548,-923,18.5,1.2,-36.9,18.6,1.2,-36.5,5.73,2.43,-32.1,23.7
2012-12-01 00:11:00,0.0,1.9286,0.0010,411.53,0.20,-1.0,0.0,138.21,23.49,24.61,36.29,0.04,-272.74,-272.75,-35,548,-924,18.6,1.2,-36.9,18.6,1.2,-36.4,5.73,2.47,-32.1,23.6
2012-12-01 00:12:00,0.0,1.9286,0.0010,411.42,0.21,-1.0,0.0,138.22,23.49,24.61,36.31,0.04,-272.74,-272.75,-36,548,-923,18.5,1.2,-37.0,18.6,1.2,-36.5,5.73,2.36,-32.1,23.7
2012-12-01 00:13:00,0.0,1.9289,0.0008,411.34,0.22,-1.0,0.0,138.22,23.49,24.61,36.31,0.04,-272.74,-272.74,-35,548,-923,18.5,1.2,-36.9,18.6,1.2,-36.5,5.73,2.45,-32.2,23.7
2012-12-01 00:14:00,0.0,1.9283,0.0008,411.54,0.25,-1.0,0.0,138.21,23.49,24.61,36.29,0.04,-272.74,-272.75,-35,548,-924,18.5,1.2,-37.1,18.6,1.2,-36.6,5.73,2.45,-32.2,23.7
2012-12-01 00:15:00,0.0,1.9285,0.0008,411.56,0.23,-1.0,0.0,138.22,23.48,24.61,36.30,0.04,-272.74,-272.75,-35,548,-923,18.6,1.2,-37.2,18.6,1.2,-36.7,5.73,2.36,-32.2,23.7
2012-12-01 00:16:00,0.0,1.9286,0.0009,411.37,0.22,-1.0,0.0,138.22,23.48,24.61,36.31,0.04,-272.74,-272.74,-35,548,-923,18.5,1.2,-37.2,18.6,1.2,-36.7,5.73,2.47,-32.2,23.6
2012-12-01 00:17:00,0.0,1.9283,0.0010,411.51,0.23,-1.0,0.0,138.21,23.49,24.61,36.30,0.04,-272.75,-272.75,-35,548,-924,18.5,1.2,-36.9,18.6,1.2,-36.5,5.73,2.41,-32.2,23.7
2012-12-01 00:18:00,0.0,1.9294,0.0008,411.46,0.24,-1.0,0.0,138.22,23.49,24.60,36.30,0.04,-272.75,-272.74,-35,548,-923,18.5,1.2,-36.9,18.6,1.2,-36.5,5.73,2.38,-32.2,23.7
2012-12-01 00:19:00,0.0,1.9291,0.0009,411.60,0.25,-1.0,0.0,138.22,23.50,24.61,36.29,0.04,-272.74,-272.75,-35,548,-923,18.5,1.2,-36.9,18.6,1.2,-36.5,5.73,2.49,-32.2,23.6
2012-12-01 00:20:00,0.0,1.9287,0.0009,411.51,0.20,-1.0,0.0,138.22,23.50,24.61,36.30,0.04,-272.75,-272.74,-35,548,-924,18.5,1.2,-36.7,18.6,1.3,-36.2,5.73,2.38,-32.2,23.6
2012-12-01 00:21:00,0.0,1.9286,0.0010,411.51,0.22,-1.0,0.0,138.22,23.50,24.61,36.30,0.04,-272.74,-272.74,-35,548,-923,18.5,1.3,-36.5,18.6,1.3,-36.1,5.73,2.40,-32.2,23.7
2012-12-01 00:22:00,0.0,1.9289,0.0009,411.50,0.21,-1.0,0.0,138.22,23.50,24.61,36.30,0.04,-272.74,-272.74,-35,548,-923,18.5,1.3,-36.2,18.6,1.3,-35.8,5.73,2.48,-32.2,23.7
2012-12-01 00:23:00,0.0,1.9287,0.0008,411.49,0.19,-1.0,0.0,138.22,23.51,24.61,36.30,0.04,-272.74,-272.75,-35,548,-924,18.5,1.3,-36.0,18.6,1.4,-35.6,5.73,2.36,-32.2,23.7
2012-12-01 00:24:00,0.0,1.9290,0.0008,411.40,0.21,-1.0,0.0,138.21,23.51,24.61,36.31,0.04,-272.74,-272.75,-36,548,-923,18.5,1.3,-35.7,18.6,1.4,-35.3,5.73,2.45,-32.2,23.7
2012-12-01 00:25:00,0.0,1.9289,0.0008,411.49,0.20,-1.0,0.0,138.21,23.51,24.61,36.30,0.04,-272.75,-272.74,-35,548,-923,18.5,1.4,-35.6,18.6,1.4,-35.2,5.73,2.45,-32.2,23.7
2012-12-01 00:26:00,0.0,1.9287,0.0008,411.51,0.27,-1.0,0.0,138.22,23.51,24.61,36.30,0.04,-272.74,-272.74,-35,548,-924,18.5,1.4,-35.4,18.7,1.4,-35.0,5.73,2.36,-32.2,23.6
2012-12-01 00:27:00,0.0,1.9290,0.0008,411.63,0.29,-1.0,0.0,138.22,23.51,24.61,36.29,0.04,-272.74,-272.75,-35,548,-923,18.5,1.4,-35.3,18.6,1.5,-34.8,5.73,2.48,-32.2,23.7
2012-12-01 00:28:00,0.0,1.9285,0.0009,411.54,0.24,-1.0,0.0,138.21,23.51,24.61,36.29,0.04,-272.74,-272.74,-35,548,-923,18.5,1.4,-35.3,18.6,1.5,-34.8,5.73,2.40,-32.3,23.7
2012-12-01 00:29:00,0.0,1.9284,0.0009,411.35,0.23,-1.0,0.0,138.22,23.51,24.61,36.30,0.04,-272.74,-272.74,-36,548,-924,18.5,1.4,-35.4,18.6,1.4,-35.0,5.73,2.38,-32.3,23.7
2012-12-01 00:30:00,0.0,1.9285,0.0010,411.48,0.27,-1.0,0.0,138.21,23.51,24.61,36.30,0.04,-272.74,-272.75,-35,548,-923,18.5,1.3,-36.0,18.6,1.4,-35.6,5.73,2.48,-32.3,23.7
2012-12-01 00:31:00,0.0,1.9288,0.0010,411.48,0.24,-1.0,0.0,138.21,23.51,24.61,36.30,0.04,-272.74,-272.75,-36,548,-923,18.5,1.3,-36.5,18.6,1.3,-36.1,5.73,2.38,-32.3,23.7
2012-12-01 00:32:00,0.0,1.9287,0.0007,411.36,0.19,-1.0,0.0,138.22,23.51,24.61,36.30,0.04,-272.74,-272.74,-35,548,-924,18.6,1.2,-36.8,18.6,1.3,-36.3,5.73,2.42,-32.3,23.7
2012-12-01 00:33:00,0.0,1.9280,0.0011,411.44,0.24,-1.0,0.0,138.21,23.51,24.61,36.30,0.04,-272.75,-272.74,-35,548,-923,18.5,1.2,-36.9,18.7,1.2,-36.5,5.73,2.47,-32.3,23.7
2012-12-01 00:34:00,0.0,1.9284,0.0008,411.45,0.20,-1.0,0.0,138.21,23.51,24.61,36.30,0.04,-272.75,-272.75,-35,548,-923,18.6,1.2,-36.9,18.6,1.2,-36.4,5.73,2.35,-32.3,23.7
2012-12-01 00:35:00,0.0,1.9279,0.0008,411.47,0.22,-1.0,0.0,138.21,23.52,24.61,36.29,0.04,-272.74,-272.74,-35,548,-924,18.6,1.2,-36.9,18.6,1.2,-36.5,5.73,2.47,-32.3,23.7
2012-12-01 00:36:00,0.0,1.9284,0.0009,411.48,0.21,-1.0,0.0,138.21,23.52,24.61,36.30,0.04,-272.74,-272.74,-36,548,-923,18.6,1.2,-37.1,18.7,1.2,-36.6,5.73,2.42,-32.3,23.7
2012-12-01 00:37:00,0.0,1.9287,0.0011,411.39,0.21,-1.0,0.0,138.21,23.52,24.61,36.30,0.04,-272.74,-272.75,-35,548,-923,18.6,1.2,-37.2,18.7,1.2,-36.6,5.73,2.37,-32.3,23.7
2012-12-01 00:38:00,0.0,1.9286,0.0010,411.41,0.21,-1.0,0.0,138.21,23.52,24.61,36.30,0.04,-272.74,-272.75,-36,548,-924,18.6,1.2,-37.2,18.7,1.2,-36.7,5.73,2.49,-32.3,23.7
2012-12-01 00:39:00,0.0,1.9287,0.0009,411.41,0.26,-1.0,0.0,138.21,23.52,24.61,36.30,0.04,-272.74,-272.74,-35,548,-923,18.6,1.1,-37.4,18.6,1.2,-36.9,5.73,2.36,-32.3,23.7
2012-12-01 00:40:00,0.0,1.9287,0.0009,411.44,0.24,-1.0,0.0,138.21,23.53,24.61,36.30,0.04,-272.74,-272.75,-35,548,-924,18.6,1.1,-37.3,18.6,1.2,-36.9,5.73,2.44,-32.3,23.7
2012-12-01 00:41:00,0.0,1.9289,0.0008,411.39,0.25,-1.0,0.0,138.22,23.53,24.61,36.30,0.04,-272.74,-272.75,-35,548,-924,18.6,1.2,-37.1,18.6,1.2,-36.7,5.73,2.46,-32.3,23.7
2012-12-01 00:42:00,0.0,1.9282,0.0009,411.41,0.30,-1.0,0.0,138.21,23.53,24.61,36.30,0.04,-272.74,-272.75,-35,548,-923,18.6,1.2,-36.9,18.6,1.2,-36.5,5.73,2.36,-32.3,23.7
2012-12-01 00:43:00,0.0,1.9283,0.0008,411.49,0.24,-1.0,0.0,138.21,23.53,24.61,36.29,0.04,-272.74,-272.75,-36,548,-924,18.6,1.2,-36.7,18.6,1.3,-36.3,5.73,2.48,-32.3,23.7
2012-12-01 00:44:00,0.0,1.9282,0.0008,411.47,0.28,-1.0,0.0,138.22,23.53,24.61,36.30,0.04,-272.75,-272.75,-35,548,-924,18.6,1.2,-36.7,18.7,1.3,-36.3,5.73,2.40,-32.3,23.7
2012-12-01 00:45:00,0.0,1.9284,0.0009,411.48,0.27,-1.0,0.0,138.22,23.53,24.61,36.30,0.04,-272.75,-272.75,-36,548,-923,18.6,1.2,-36.7,18.6,1.3,-36.2,5.73,2.38,-32.3,23.7
2012-12-01 00:46:00,0.0,1.9281,0.0010,411.39,0.27,-1.0,0.0,138.21,23.53,24.61,36.30,0.04,-272.74,-272.74,-35,548,-924,18.6,1.2,-36.6,18.6,1.3,-36.3,5.73,2.49,-32.4,23.7
2012-12-01 00:47:00,0.0,1.9283,0.0008,411.41,0.31,-1.0,0.0,138.22,23.53,24.61,36.30,0.04,-272.75,-272.74,-35,548,-924,18.6,1.2,-36.9,18.7,1.2,-36.4,5.73,2.36,-32.4,23.7
2012-12-01 00:48:00,0.0,1.9288,0.0010,411.46,0.21,-1.0,0.0,138.21,23.54,24.61,36.30,0.04,-272.75,-272.74,-35,548,-923,18.6,1.2,-36.9,18.7,1.2,-36.5,5.73,2.44,-32.4,23.7
2012-12-01 00:49:00,0.0,1.9294,0.0010,411.48,0.23,-1.0,0.0,138.22,23.55,24.61,36.29,0.04,-272.74,-272.74,-35,548,-924,18.6,1.2,-36.9,18.6,1.2,-36.4,5.73,2.45,-32.4,23.7
2012-12-01 00:50:00,0.0,1.9293,0.0011,411.47,0.25,-1.0,0.0,138.21,23.55,24.61,36.30,0.04,-272.74,-272.74,-36,548,-924,18.6,1.2,-36.9,18.7,1.2,-36.4,5.73,2.35,-32.4,23.7
2012-12-01 00:51:00,0.0,1.9298,0.0008,411.46,0.25,-1.0,0.0,138.21,23.56,24.61,36.30,0.04,-272.75,-272.75,-35,548,-923,18.6,1.2,-36.9,18.7,1.3,-36.4,5.73,2.49,-32.4,23.7
2012-12-01 00:52:00,0.0,1.9295,0.0009,411.42,0.26,-1.0,0.0,138.21,23.57,24.61,36.31,0.04,-272.74,-272.75,-36,548,-924,18.6,1.2,-36.9,18.7,1.2,-36.4,5.73,2.38,-32.5,23.7
2012-12-01 00:53:00,0.0,1.9297,0.0011,411.44,0.23,-1.0,0.0,138.21,23.58,24.61,36.30,0.04,-272.74,-272.74,-35,548,-924,18.6,1.2,-36.9,18.7,1.2,-36.4,5.73,2.40,-32.5,23.7
2012-12-01 00:54:00,0.0,1.9287,0.0010,411.36,0.23,-1.0,0.0,138.22,23.57,24.61,36.30,0.04,-272.75,-272.75,-36,548,-923,18.6,1.2,-36.7,18.6,1.3,-36.3,5.73,2.48,-32.5,23.7
2012-12-01 00:55:00,0.0,1.9289,0.0007,411.43,0.27,-1.0,0.0,138.21,23.57,24.61,36.30,0.04,-272.74,-272.75,-35,548,-924,18.6,1.2,-36.7,18.7,1.3,-36.2,5.73,2.36,-32.5,23.7
2012-12-01 00:56:00,0.0,1.9292,0.0009,411.47,0.28,-1.0,0.0,138.21,23.57,24.61,36.30,0.04,-272.74,-272.75,-35,548,-924,18.6,1.2,-36.5,18.6,1.3,-36.2,5.73,2.47,-32.5,23.7
2012-12-01 00:57:00,0.0,1.9288,0.0007,411.52,0.25,-1.0,0.0,138.22,23.57,24.61,36.29,0.04,-272.75,-272.74,-35,548,-923,18.6,1.3,-36.4,18.7,1.3,-36.0,5.73,2.41,-32.5,23.7
2012-12-01 00:58:00,0.0,1.9286,0.0009,411.54,0.25,-1.0,0.0,138.21,23.57,24.61,36.29,0.04,-272.75,-272.74,-35,548,-924,18.6,1.3,-36.3,18.7,1.3,-36.0,5.73,2.38,-32.5,23.7
2012-12-01 00:59:00,0.0,1.9286,0.0009,411.42,0.21,-1.0,0.0,138.21,23.57,24.61,36.30,0.04,-272.75,-272.74,-36,548,-924,18.6,1.3,-36.2,18.6,1.3,-35.8,5.73,2.49,-32.5,23.7
2012-12-01 01:00:00,0.0,1.9290,0.0010,411.43,0.28,-1.0,0.0,138.22,23.57,24.60,36.30,0.04,-272.74,-272.75,-35,548,-923,18.6,1.3,-36.1,18.7,1.4,-35.6,5.73,2.36,-32.5,23.7
2012-12-01 01:01:00,0.0,1.9284,0.0009,411.37,0.24,-1.0,0.0,138.21,23.57,24.61,36.30,0.04,-272.75,-272.75,-36,548,-924,18.6,1.3,-35.9,18.7,1.4,-35.5,5.73,2.45,-32.5,23.7
2012-12-01 01:02:00,0.0,1.9286,0.0010,411.34,0.19,-1.0,0.0,138.21,23.57,24.61,36.30,0.04,-272.74,-272.74,-35,548,-924,18.6,1.3,-35.8,18.7,1.4,-35.4,5.73,2.44,-32.5,23.7
2012-12-01 01:03:00,0.0,1.9290,0.0010,411.44,0.19,-1.0,0.0,138.21,23.57,24.61,36.29,0.04,-272.74,-272.74,-36,548,-923,18.6,1.3,-35.8,18.7,1.4,-35.4,5.73,2.37,-32.5,23.7
2012-12-01 01:04:00,0.0,1.9290,0.0010,411.53,0.28,-1.0,0.0,138.21,23.57,24.61,36.29,0.04,-272.75,-272.74,-35,548,-924,18.6,1.3,-35.9,18.7,1.4,-35.4,5.73,2.48,-32.5,23.7
2012-12-01 01:05:00,0.0,1.9282,0.0009,411.34,0.31,-1.0,0.0,138.21,23.57,24.61,36.30,0.04,-272.74,-272.75,-36,548,-924,18.6,1.3,-35.8,18.7,1.4,-35.4,5.73,2.36,-32.6,23.7
2012-12-01 01:06:00,0.0,1.9288,0.0010,411.44,0.25,-1.0,0.0,138.21,23.57,24.61,36.30,0.04,-272.74,-272.75,-35,548,-923,18.6,1.3,-36.0,18.7,1.4,-35.6,5.73,2.44,-32.6,23.7
2012-12-01 01:07:00,0.0,1.9291,0.0008,411.36,0.23,-1.0,0.0,138.21,23.57,24.61,36.30,0.04,-272.74,-272.75,-35,548,-924,18.6,1.3,-36.2,18.7,1.3,-35.8,5.73,2.45,-32.6,23.7
2012-12-01 01:08:00,0.0,1.9287,0.0010,411.38,0.24,-1.0,0.0,138.21,23.57,24.61,36.30,0.04,-272.74,-272.75,-35,548,-924,18.6,1.2,-36.5,18.7,1.3,-36.0,5.73,2.36,-32.6,23.7
2012-12-01 01:09:00,0.0,1.9285,0.0009,411.45,0.21,-1.0,0.0,138.21,23.57,24.61,36.30,0.04,-272.75,-272.75,-35,548,-923,18.6,1.2,-36.8,18.7,1.3,-36.3,5.73,2.49,-32.6,23.7
2012-12-01 01:10:00,0.0,1.9288,0.0010,411.36,0.20,-1.0,0.0,138.22,23.57,24.61,36.29,0.04,-272.74,-272.75,-35,548,-924,18.6,1.2,-37.0,18.7,1.2,-36.5,5.73,2.37,-32.6,23.7
2012-12-01 01:11:00,0.0,1.9286,0.0008,411.35,0.17,-1.0,0.0,138.21,23.57,24.61,36.30,0.04,-272.75,-272.75,-35,548,-924,18.6,1.2,-37.1,18.6,1.2,-36.7,5.73,2.44,-32.6,23.7
2012-12-01 01:12:00,0.0,1.9292,0.0009,411.32,0.26,-1.0,0.0,138.21,23.57,24.61,36.30,0.04,-272.75,-272.74,-36,548,-923,18.6,1.2,-37.2,18.7,1.2,-36.7,5.73,2.44,-32.6,23.7
2012-12-01 01:13:00,0.0,1.9297,0.0012,411.42,0.28,-1.0,0.0,138.21,23.58,24.61,36.30,0.04,-272.74,-272.74,-35,548,-924,18.6,1.2,-37.1,18.7,1.2,-36.7,5.73,2.36,-32.6,23.7
2012-12-01 01:14:00,0.0,1.9299,0.0008,411.46,0.26,-1.0,0.0,138.22,23.59,24.61,36.29,0.04,-272.75,-272.74,-36,548,-924,18.6,1.2,-37.1,18.7,1.2,-36.7,5.73,2.50,-32.6,23.7
2012-12-01 01:15:00,0.0,1.9295,0.0010,411.30,0.24,-1.0,0.0,138.21,23.59,24.61,36.30,0.04,-272.74,-272.75,-35,548,-923,18.6,1.2,-37.1,18.7,1.2,-36.7,5.73,2.36,-32.6,23.7
2012-12-01 01:16:00,0.0,1.9297,0.0012,411.37,0.26,-1.0,0.0,138.21,23.59,24.61,36.30,0.04,-272.74,-272.74,-36,548,-924,18.6,1.2,-37.2,18.7,1.2,-36.8,5.73,2.45,-32.6,23.7
2012-12-01 01:17:00,0.0,1.9297,0.0010,411.43,0.23,-1.0,0.0,138.21,23.59,24.61,36.30,0.04,-272.74,-272.74,-35,548,-924,18.6,1.1,-37.4,18.7,1.2,-37.0,5.73,2.43,-32.6,23.7
2012-12-01 01:18:00,0.0,1.9298,0.0009,411.48,0.21,-1.0,0.0,138.21,23.60,24.61,36.29,0.04,-272.74,-272.74,-36,548,-923,18.6,1.1,-37.6,18.7,1.2,-37.1,5.73,2.37,-32.6,23.7
2012-12-01 01:19:00,0.0,1.9300,0.0009,411.42,0.23,-1.0,0.0,138.22,23.61,24.61,36.30,0.04,-272.74,-272.74,-35,548,-923,18.6,1.1,-37.6,18.7,1.2,-37.1,5.73,2.49,-32.6,23.7
2012-12-01 01:20:00,0.0,1.9299,0.0008,411.35,0.26,-1.0,0.0,138.21,23.61,24.61,36.30,0.04,-272.75,-272.75,-35,548,-924,18.6,1.1,-37.6,18.7,1.2,-37.1,5.73,2.35,-32.6,23.7
2012-12-01 01:21:00,0.0,1.9294,0.0009,411.48,0.26,-1.0,0.0,138.21,23.61,24.61,36.29,0.04,-272.74,-272.75,-35,548,-923,18.6,1.1,-37.6,18.7,1.2,-37.1,5.73,2.46,-32.7,23.7
2012-12-01 01:22:00,0.0,1.9291,0.0008,411.45,0.23,-1.0,0.0,138.21,23.61,24.61,36.29,0.04,-272.74,-272.75,-35,548,-923,18.6,1.1,-37.5,18.7,1.2,-37.1,5.73,2.42,-32.7,23.7
2012-12-01 01:23:00,0.0,1.9292,0.0009,411.35,0.27,-1.0,0.0,138.21,23.61,24.61,36.30,0.04,-272.74,-272.74,-36,548,-924,18.6,1.1,-37.4,18.7,1.2,-36.9,5.73,2.38,-32.7,23.7
2012-12-01 01:24:00,0.0,1.9289,0.0010,411.32,0.27,-1.0,0.0,138.21,23.61,24.61,36.30,0.04,-272.74,-272.75,-35,548,-924,18.6,1.2,-37.2,18.7,1.2,-36.7,5.73,2.49,-32.7,23.7
2012-12-01 01:25:00,0.0,1.9288,0.0010,411.21,0.21,-1.0,0.0,138.21,23.61,24.61,36.30,0.04,-272.75,-272.74,-36,548,-923,18.6,1.2,-37.1,18.7,1.2,-36.6,5.73,2.35,-32.7,23.7
2012-12-01 01:26:00,0.0,1.9285,0.0009,411.40,0.22,-1.0,0.0,138.22,23.61,24.61,36.29,0.04,-272.74,-272.74,-35,548,-924,18.6,1.2,-36.9,18.7,1.2,-36.5,5.73,2.47,-32.7,23.7
2012-12-01 01:27:00,0.0,1.9289,0.0009,411.27,0.23,-1.0,0.0,138.21,23.61,24.61,36.30,0.04,-272.74,-272.74,-36,548,-924,18.6,1.2,-36.9,18.7,1.2,-36.4,5.73,2.41,-32.7,23.7
2012-12-01 01:28:00,0.0,1.9288,0.0011,411.30,0.24,-1.0,0.0,138.21,23.61,24.61,36.30,0.04,-272.74,-272.75,-35,548,-923,18.6,1.2,-37.1,18.7,1.2,-36.6,5.73,2.39,-32.7,23.7
2012-12-01 01:29:00,0.0,1.9283,0.0011,411.42,0.24,-1.0,0.0,138.21,23.61,24.61,36.29,0.04,-272.74,-272.74,-36,548,-924,18.6,1.2,-37.2,18.7,1.2,-36.7,5.73,2.49,-32.7,23.7
2012-12-01 01:30:00,0.0,1.9284,0.0008,411.28,0.26,-1.0,0.0,138.21,23.61,24.61,36.30,0.04,-272.74,-272.74,-35,548,-924,18.6,1.1,-37.4,18.7,1.2,-36.9,5.73,2.35,-32.7,23.7
2012-12-01 01:31:00,0.0,1.9285,0.0009,411.33,0.29,-1.0,0.0,138.21,23.61,24.61,36.30,0.04,-272.75,-272.75,-35,548,-923,18.6,1.1,-37.4,18.7,1.2,-37.0,5.73,2.48,-32.7,23.7
2012-12-01 01:32:00,0.0,1.9288,0.0010,411.42,0.21,-1.0,0.0,138.21,23.61,24.61,36.29,0.04,-272.74,-272.75,-35,548,-923,18.6,1.1,-37.7,18.7,1.2,-37.2,5.73,2.41,-32.7,23.7
2012-12-01 01:33:00,0.0,1.9284,0.0010,411.31,0.28,-1.0,0.0,138.21,23.61,24.61,36.30,0.04,-272.74,-272.74,-35,548,-924,18.6,1.1,-37.8,18.7,1.1,-37.4,5.73,2.40,-32.7,23.7
2012-12-01 01:34:00,0.0,1.9288,0.0009,411.33,0.23,-1.0,0.0,138.21,23.61,24.61,36.30,0.04,-272.75,-272.74,-35,548,-923,18.6,1.1,-38.1,18.7,1.1,-37.6,5.73,2.47,-32.7,23.7
2012-12-01 01:35:00,0.0,1.9282,0.0007,411.34,0.23,-1.0,0.0,138.21,23.61,24.61,36.29,0.04,-272.75,-272.75,-35,548,-923,18.6,1.1,-38.1,18.7,1.1,-37.6,5.73,2.36,-32.8,23.7
2012-12-01 01:36:00,0.0,1.9283,0.0009,411.27,0.30,-1.0,0.0,138.21,23.61,24.61,36.30,0.04,-272.74,-272.74,-35,548,-924,18.6,1.1,-38.1,18.7,1.1,-37.6,5.73,2.49,-32.8,23.7
2012-12-01 01:37:00,0.0,1.9284,0.0010,411.38,0.26,-1.0,0.0,138.21,23.61,24.61,36.29,0.04,-272.75,-272.75,-35,548,-923,18.6,1.1,-38.1,18.7,1.1,-37.6,5.73,2.37,-32.8,23.7
2012-12-01 01:38:00,0.0,1.9281,0.0009,411.27,0.19,-1.0,0.0,138.21,23.61,24.61,36.30,0.04,-272.75,-272.75,-36,548,-923,18.6,1.1,-37.9,18.7,1.1,-37.4,5.73,2.43,-32.8,23.7
2012-12-01 01:39:00,0.0,1.9282,0.0008,411.36,0.23,-1.0,0.0,138.22,23.61,24.61,36.29,0.04,-272.74,-272.74,-35,548,-924,18.6,1.1,-37.7,18.7,1.1,-37.3,5.73,2.46,-32.8,23.7
2012-12-01 01:40:00,0.0,1.9284,0.0009,411.26,0.20,-1.0,0.0,138.21,23.61,24.61,36.30,0.04,-272.74,-272.75,-36,548,-923,18.6,1.1,-37.5,18.7,1.2,-37.1,5.73,2.36,-32.8,23.7
2012-12-01 01:41:00,0.0,1.9292,0.0008,411.32,0.24,-1.0,0.0,138.21,23.62,24.60,36.30,0.04,-272.75,-272.75,-35,548,-923,18.6,1.1,-37.4,18.7,1.2,-36.9,5.73,2.49,-32.8,23.7
2012-12-01 01:42:00,0.0,1.9294,0.0008,411.31,0.25,-1.0,0.0,138.21,23.62,24.61,36.30,0.04,-272.74,-272.74,-36,548,-924,18.6,1.2,-37.2,18.7,1.2,-36.7,5.73,2.36,-32.8,23.7
2012-12-01 01:43:00,0.0,1.9295,0.0010,411.36,0.22,-1.0,0.0,138.22,23.63,24.61,36.30,0.04,-272.74,-272.74,-35,548,-923,18.6,1.2,-37.1,18.7,1.2,-36.7,5.73,2.46,-32.8,23.7
2012-12-01 01:44:00,0.0,1.9301,0.0014,411.39,0.21,-1.0,0.0,138.21,23.64,24.61,36.30,0.04,-272.74,-272.74,-36,548,-924,18.6,1.2,-36.9,18.7,1.2,-36.5,5.73,2.43,-32.8,23.7
2012-12-01 01:45:00,0.0,1.9310,0.0008,411.38,0.26,-1.0,0.0,138.22,23.65,24.61,36.30,0.04,-272.75,-272.75,-35,548,-924,18.6,1.2,-36.9,18.7,1.2,-36.4,5.73,2.38,-32.8,23.7
2012-12-01 01:46:00,0.0,1.9307,0.0008,411.43,0.28,-1.0,0.0,138.21,23.66,24.61,36.30,0.04,-272.74,-272.74,-36,548,-923,18.6,1.2,-36.9,18.7,1.3,-36.4,5.73,2.49,-32.8,23.7
2012-12-01 01:47:00,0.0,1.9303,0.0009,411.46,0.24,-1.0,0.0,138.22,23.65,24.61,36.29,0.04,-272.75,-272.74,-35,548,-923,18.6,1.2,-36.6,18.7,1.3,-36.3,5.73,2.35,-32.8,23.7
2012-12-01 01:48:00,0.0,1.9299,0.0011,411.38,0.22,-1.0,0.0,138.21,23.65,24.61,36.30,0.04,-272.75,-272.75,-35,548,-924,18.6,1.2,-36.6,18.7,1.3,-36.2,5.73,2.48,-32.8,23.7
2012-12-01 01:49:00,0.0,1.9298,0.0010,411.42,0.23,-1.0,0.0,138.21,23.65,24.61,36.30,0.04,-272.74,-272.75,-35,548,-924,18.6,1.2,-36.5,18.7,1.3,-36.1,5.73,2.40,-32.8,23.7
2012-12-01 01:50:00,0.0,1.9291,0.0010,411.46,0.22,-1.0,0.0,138.21,23.65,24.61,36.29,0.04,-272.75,-272.74,-35,548,-923,18.6,1.3,-36.4,18.7,1.3,-36.0,5.73,2.41,-32.9,23.7
2012-12-01 01:51:00,0.0,1.9291,0.0010,411.44,0.21,-1.0,0.0,138.21,23.64,24.61,36.30,0.04,-272.75,-272.75,-35,548,-924,18.6,1.3,-36.5,18.7,1.3,-36.0,5.73,2.47,-32.9,23.7
2012-12-01 01:52:00,0.0,1.9293,0.0010,411.48,0.26,-1.0,0.0,138.21,23.64,24.61,36.30,0.04,-272.74,-272.75,-35,548,-924,18.6,1.2,-36.5,18.7,1.3,-36.0,5.73,2.36,-32.9,23.7
2012-12-01 01:53:00,0.0,1.9290,0.0010,411.66,0.24,-1.0,0.0,138.21,23.64,24.61,36.29,0.04,-272.74,-272.74,-35,548,-923,18.6,1.3,-36.4,18.7,1.3,-36.1,5.73,2.49,-32.9,23.7
2012-12-01 01:54:00,0.0,1.9297,0.0008,411.45,0.23,-1.0,0.0,138.22,23.64,24.61,36.30,0.04,-272.74,-272.74,-35,548,-924,18.6,1.2,-36.6,18.7,1.3,-36.2,5.73,2.36,-32.9,23.7
2012-12-01 01:55:00,0.0,1.9295,0.0008,411.34,0.28,-1.0,0.0,138.21,23.64,24.61,36.30,0.04,-272.74,-272.74,-35,548,-924,18.6,1.2,-36.7,18.7,1.3,-36.2,5.73,2.46,-32.9,23.7
2012-12-01 01:56:00,0.0,1.9292,0.0012,411.42,0.26,-1.0,0.0,138.21,23.64,24.61,36.29,0.04,-272.75,-272.74,-35,548,-923,18.5,1.2,-36.7,18.7,1.3,-36.3,5.73,2.41,-32.9,23.7
2012-12-01 01:57:00,0.0,1.9293,0.0008,411.40,0.20,-1.0,0.0,138.22,23.64,24.61,36.29,0.04,-272.74,-272.74,-36,548,-924,18.6,1.2,-36.7,18.7,1.3,-36.2,5.73,2.39,-32.9,23.7
2012-12-01 01:58:00,0.0,1.9297,0.0010,411.52,0.29,-1.0,0.0,138.21,23.64,24.61,36.29,0.04,-272.74,-272.75,-35,548,-924,18.5,1.2,-36.7,18.7,1.3,-36.2,5.73,2.48,-32.9,23.7
2012-12-01 01:59:00,0.0,1.9307,0.0011,411.45,0.28,-1.0,0.0,138.22,23.65,24.60,36.30,0.04,-272.75,-272.75,-36,548,-923,18.5,1.2,-36.7,18.7,1.3,-36.3,5.73,2.35,-32.9,23.7
2012-12-01 02:00:00,0.0,1.9306,0.0009,411.59,0.23,-1.0,0.0,138.21,23.65,24.61,36.29,0.04,-272.74,-272.75,-35,548,-924,18.5,1.2,-36.9,18.7,1.2,-36.5,5.73,2.50,-32.9,23.7
2012-12-01 02:01:00,0.0,1.9307,0.0008,411.40,0.23,-1.0,0.0,138.21,23.66,24.61,36.30,0.04,-272.75,-272.75,-36,548,-924,18.5,1.2,-37.0,18.7,1.2,-36.4,5.73,2.36,-32.9,23.7
2012-12-01 02:02:00,0.0,1.9308,0.0009,411.40,0.28,-1.0,0.0,138.21,23.66,24.61,36.30,0.04,-272.75,-272.75,-35,548,-923,18.5,1.2,-36.9,18.7,1.2,-36.5,5.73,2.46,-32.9,23.7
2012-12-01 02:03:00,0.0,1.9311,0.0008,411.46,0.20,-1.0,0.0,138.21,23.67,24.61,36.30,0.04,-272.74,-272.74,-36,548,-924,18.5,1.2,-37.1,18.7,1.2,-36.6,5.73,2.42,-32.9,23.7
2012-12-01 02:04:00,0.0,1.9315,0.0008,411.44,0.23,-1.0,0.0,138.21,23.68,24.61,36.30,0.04,-272.74,-272.75,-35,548,-924,18.5,1.2,-37.2,18.7,1.2,-36.7,5.73,2.40,-32.9,23.7
2012-12-01 02:05:00,0.0,1.9308,0.0010,411.43,0.22,-1.0,0.0,138.21,23.68,24.61,36.30,0.04,-272.75,-272.74,-36,548,-923,18.5,1.1,-37.3,18.7,1.2,-36.8,5.73,2.48,-32.9,23.7
2012-12-01 02:06:00,0.0,1.9300,0.0009,411.39,0.21,-1.0,0.0,138.21,23.68,24.61,36.29,0.04,-272.74,-272.74,-35,548,-924,18.5,1.1,-37.4,18.7,1.2,-36.9,5.73,2.36,-33.0,23.7
2012-12-01 02:07:00,0.0,1.9294,0.0008,411.41,0.23,-1.0,0.0,138.21,23.67,24.61,36.29,0.04,-272.74,-272.74,-36,548,-924,18.6,1.1,-37.4,18.7,1.2,-37.1,5.73,2.50,-33.0,23.7
2012-12-01 02:08:00,0.0,1.9296,0.0008,411.34,0.22,-1.0,0.0,138.22,23.67,24.61,36.30,0.04,-272.75,-272.74,-35,548,-923,18.5,1.1,-37.6,18.7,1.2,-37.1,5.73,2.36,-33.0,23.7
2012-12-01 02:09:00,0.0,1.9299,0.0011,411.38,0.26,-1.0,0.0,138.21,23.66,24.61,36.30,0.04,-272.74,-272.74,-36,548,-924,18.5,1.1,-37.7,18.7,1.2,-37.2,5.73,2.46,-33.0,23.7
2012-12-01 02:10:00,0.0,1.9300,0.0010,411.32,0.23,-1.0,0.0,138.21,23.66,24.61,36.30,0.04,-272.75,-272.74,-35,548,-924,18.6,1.1,-37.8,18.7,1.1,-37.4,5.73,2.42,-33.0,23.7
2012-12-01 02:11:00,0.0,1.9292,0.0011,411.36,0.23,-1.0,0.0,138.22,23.66,24.61,36.29,0.04,-272.74,-272.74,-36,548,-923,18.6,1.1,-37.9,18.7,1.1,-37.4,5.73,2.40,-33.0,23.7
2012-12-01 02:12:00,0.0,1.9292,0.0008,411.30,0.25,-1.0,0.0,138.21,23.66,24.61,36.30,0.04,-272.74,-272.75,-35,548,-924,18.6,1.1,-38.1,18.7,1.1,-37.6,5.73,2.48,-33.0,23.7
2012-12-01 02:13:00,0.0,1.9288,0.0008,411.40,0.25,-1.0,0.0,138.21,23.66,24.61,36.29,0.04,-272.74,-272.75,-36,548,-924,18.6,1.1,-38.1,18.7,1.1,-37.6,5.73,2.35,-33.0,23.7
2012-12-01 02:14:00,0.0,1.9286,0.0012,411.45,0.24,-1.0,0.0,138.22,23.65,24.61,36.29,0.04,-272.74,-272.75,-35,548,-923,18.6,1.1,-38.1,18.7,1.1,-37.5,5.73,2.50,-33.0,23.7
2012-12-01 02:15:00,0.0,1.9295,0.0010,411.36,0.21,-1.0,0.0,138.21,23.66,24.61,36.29,0.04,-272.74,-272.75,-36,548,-924,18.5,1.1,-38.1,18.7,1.1,-37.6,5.73,2.35,-33.0,23.7
2012-12-01 02:16:00,0.0,1.9297,0.0010,411.31,0.21,-1.0,0.0,138.21,23.66,24.61,36.30,0.04,-272.74,-272.75,-35,548,-924,18.6,1.1,-38.1,18.7,1.1,-37.6,5.73,2.47,-33.0,23.7
2012-12-01 02:17:00,0.0,1.9297,0.0008,411.43,0.28,-1.0,0.0,138.21,23.67,24.61,36.29,0.04,-272.74,-272.74,-36,548,-924,18.5,1.1,-37.9,18.7,1.1,-37.4,5.73,2.41,-33.0,23.7
2012-12-01 02:18:00,0.0,1.9318,0.0011,411.50,0.22,-1.0,0.0,138.21,23.67,24.61,36.30,0.04,-272.75,-272.74,-35,548,-923,18.6,1.1,-37.8,18.7,1.1,-37.3,5.73,2.41,-33.0,23.7